Total_Precipitation_Accumulation
1.51 1.46 2.26 3.32 3.84 3.02 2.63 2.40 1.97 1.79 1.42 1.15 0.94 0.95 1.30 1.63 1.79 2.05 2.15 2.20 1.44 1.26 1.51 2.08 2.62 2.41 2.18 2.05 1.98 1.85 1.61 1.28 1.12 1.08 1.06 0.95 0.88 0.86 0.83 0.82 0.77 0.75 0.73 0.72 0.86 1.02 1.03 1.05 1.08
1.16 1.78 2.85 3.84 3.40 2.59 2.62 2.33 2.00 1.69 1.24 0.91 0.74 0.74 0.82 0.77 0.68 1.15 2.26 2.46 1.48 1.19 1.37 1.65 2.37 2.28 2.16 2.05 1.85 1.81 1.58 1.23 1.13 1.11 1.04 0.90 0.83 0.87 0.94 0.93 0.82 0.78 0.72 0.68 0.73 0.95 0.99 0.99 1.02
1.63 2.51 3.45 3.62 2.67 2.42 2.61 2.35 1.95 1.30 0.93 0.82 0.74 0.64 0.73 0.90 0.94 1.50 2.24 1.86 1.38 1.21 1.41 2.00 2.43 2.09 1.99 1.84 1.70 1.74 1.62 1.38 1.24 1.11 1.02 0.96 0.90 0.86 0.93 0.90 0.86 0.85 0.81 0.81 0.88 1.04 1.01 0.95 0.92
2.08 3.03 3.39 3.03 2.41 2.10 2.08 2.05 1.74 1.27 0.96 0.65 0.63 0.69 0.69 1.02 1.15 1.50 1.69 1.37 1.23 1.22 1.39 1.93 2.14 1.86 1.77 1.70 1.60 1.56 1.62 1.61 1.38 1.17 1.08 1.05 1.00 0.99 1.00 0.99 0.91 0.97 0.96 0.98 1.00 1.02 1.04 1.02 0.99
2.53 3.10 3.08 2.83 2.47 2.15 1.79 1.66 1.56 1.35 1.09 0.76 0.73 0.85 1.08 1.59 1.53 1.46 1.44 1.26 1.13 1.09 1.19 1.56 1.88 1.70 1.61 1.57 1.54 1.46 1.56 1.64 1.48 1.20 1.18 1.19 1.13 1.13 1.12 1.11 1.01 1.06 1.04 1.02 1.05 0.98 1.04 1.07 1.06
2.96 2.90 2.93 2.85 2.69 2.35 1.93 1.49 1.33 1.25 0.99 0.79 0.83 0.96 1.46 1.96 1.87 1.77 1.50 1.50 1.30 1.14 1.10 1.24 1.56 1.58 1.47 1.49 1.59 1.47 1.46 1.56 1.46 1.29 1.25 1.17 1.15 1.22 1.24 1.13 1.08 1.06 1.06 1.09 1.12 1.07 1.08 1.07 1.09
2.84 2.71 2.71 2.35 2.45 2.69 2.06 1.32 1.34 1.29 1.17 0.95 0.74 0.94 1.41 1.75 1.65 1.61 1.48 1.49 1.51 1.44 1.32 1.17 1.17 1.28 1.32 1.39 1.52 1.48 1.41 1.39 1.33 1.36 1.32 1.29 1.28 1.24 1.15 1.09 1.08 1.09 1.12 1.18 1.20 1.12 1.09 1.12 1.15
2.34 2.38 2.31 2.28 2.46 2.61 1.86 1.16 1.04 1.18 1.13 0.77 0.80 1.04 1.29 1.31 1.28 1.32 1.40 1.57 1.56 1.51 1.38 1.16 1.04 1.04 1.14 1.11 1.26 1.49 1.52 1.42 1.32 1.34 1.34 1.35 1.30 1.16 1.10 1.00 1.05 1.12 1.14 1.27 1.28 1.20 1.15 1.18 1.14
1.94 2.35 2.58 2.63 2.53 2.21 1.50 1.20 0.97 0.87 0.85 0.78 0.77 0.85 0.95 0.88 1.00 1.14 1.13 1.17 1.29 1.24 1.16 1.08 1.03 1.06 1.15 1.18 1.17 1.44 1.53 1.44 1.24 1.17 1.22 1.20 1.02 0.98 1.00 0.98 1.20 1.21 1.30 1.40 1.38 1.34 1.29 1.19 1.15
1.97 2.31 2.38 1.96 1.57 1.49 1.29 1.14 1.03 1.07 1.11 0.92 0.85 0.86 0.90 0.89 0.95 1.01 1.00 1.00 1.02 0.96 0.87 0.83 0.84 0.94 1.04 1.10 1.42 1.64 1.47 1.38 1.12 1.14 1.02 1.01 1.06 1.13 0.97 1.05 1.38 1.40 1.45 1.46 1.48 1.44 1.34 1.08 0.90
1.64 1.98 1.69 1.46 1.20 1.01 1.04 1.05 0.85 0.99 1.18 0.97 0.90 0.87 0.92 0.96 0.94 0.97 0.95 0.84 0.80 0.73 0.65 0.60 0.57 0.59 0.67 0.87 1.21 1.50 1.63 1.62 1.57 1.36 1.13 1.10 0.94 0.82 0.78 0.85 1.02 1.12 1.25 1.24 1.25 1.23 1.04 0.95 0.91
1.58 1.55 1.37 1.35 1.01 0.96 0.96 0.90 0.85 0.86 0.94 0.85 0.92 0.84 0.83 0.89 0.90 0.88 0.88 0.82 0.72 0.69 0.64 0.55 0.53 0.49 0.50 0.58 0.75 0.95 1.13 1.23 1.27 1.15 1.00 1.07 0.95 0.84 0.84 0.86 0.86 0.88 1.02 1.18 1.18 1.16 1.02 0.92 0.84
1.64 1.61 1.30 1.07 0.95 0.89 0.83 0.79 0.80 0.85 0.79 0.72 0.85 0.91 0.92 0.91 0.89 0.94 0.97 0.92 0.81 0.81 0.81 0.70 0.58 0.52 0.52 0.55 0.61 0.67 0.84 0.94 0.98 1.01 0.93 0.97 0.99 0.97 0.92 0.84 0.85 0.79 0.91 1.07 1.17 1.13 1.04 1.03 0.97
1.46 1.45 1.46 1.27 1.05 0.94 0.93 0.81 0.70 0.85 0.83 0.80 0.89 0.95 0.93 0.96 0.87 0.86 0.90 0.95 0.90 0.86 0.85 0.82 0.69 0.64 0.61 0.56 0.58 0.60 0.70 0.78 0.81 0.79 0.79 0.89 0.99 0.99 0.97 0.94 0.97 0.93 0.98 1.13 1.15 1.06 1.11 1.18 1.09
1.33 1.56 1.55 1.39 1.13 1.01 1.02 1.10 0.82 0.76 0.84 0.87 0.96 0.90 0.85 0.90 0.85 0.82 0.81 0.81 0.86 0.85 0.81 0.80 0.78 0.78 0.75 0.69 0.65 0.64 0.70 0.78 0.78 0.75 0.70 0.73 0.82 0.87 0.91 0.94 0.95 1.00 1.10 1.17 1.22 1.07 1.12 1.10 1.03
1.65 1.97 2.05 1.49 1.25 1.08 1.21 1.34 0.90 0.83 0.84 0.77 0.80 0.77 0.76 0.80 0.77 0.75 0.78 0.74 0.74 0.71 0.70 0.74 0.73 0.75 0.78 0.78 0.78 0.81 0.79 0.85 0.80 0.78 0.72 0.68 0.74 0.81 0.95 0.98 0.95 0.98 1.13 1.25 1.32 1.24 1.23 1.19 1.15
1.83 1.87 1.74 1.44 1.17 1.07 1.09 1.07 0.82 0.83 0.85 0.71 0.69 0.68 0.66 0.65 0.63 0.59 0.65 0.70 0.68 0.62 0.63 0.64 0.66 0.65 0.73 0.78 0.81 0.92 0.94 0.94 0.89 0.86 0.78 0.75 0.82 0.91 1.10 1.21 1.20 1.18 1.22 1.23 1.20 1.29 1.32 1.31 1.30
1.52 1.41 1.29 1.20 1.01 0.95 0.92 0.78 0.66 0.70 0.71 0.65 0.57 0.53 0.53 0.53 0.49 0.48 0.50 0.55 0.58 0.59 0.58 0.56 0.62 0.62 0.66 0.78 0.89 1.05 1.17 1.13 1.13 1.06 0.94 0.94 1.10 1.26 1.44 1.42 1.49 1.56 1.46 1.43 1.39 1.43 1.39 1.32 1.36
1.01 1.08 1.10 1.00 0.79 0.79 0.76 0.63 0.59 0.61 0.64 0.62 0.55 0.47 0.44 0.45 0.43 0.41 0.43 0.48 0.49 0.52 0.54 0.53 0.52 0.60 0.64 0.68 0.81 1.02 1.31 1.41 1.50 1.44 1.25 1.18 1.31 1.56 1.81 1.76 1.83 1.90 1.81 1.78 1.79 2.00 1.95 1.67 1.44
0.98 1.15 1.12 1.01 0.72 0.66 0.65 0.55 0.48 0.49 0.56 0.52 0.49 0.47 0.40 0.39 0.34 0.31 0.32 0.36 0.37 0.40 0.46 0.48 0.48 0.55 0.60 0.65 0.82 0.97 1.12 1.12 1.31 1.44 1.41 1.32 1.32 1.48 1.62 1.89 2.01 1.98 2.07 2.20 2.18 2.55 2.68 2.21 1.77
0.96 0.98 0.96 0.94 0.77 0.64 0.59 0.59 0.45 0.42 0.46 0.43 0.40 0.40 0.34 0.32 0.32 0.31 0.30 0.29 0.30 0.31 0.32 0.34 0.37 0.46 0.58 0.71 0.91 1.11 1.29 1.38 1.45 1.38 1.47 1.48 1.40 1.45 1.56 1.71 1.86 1.90 2.02 2.16 2.27 2.61 3.12 2.88 2.27
0.89 0.65 0.60 0.67 0.83 0.85 0.68 0.80 0.53 0.46 0.49 0.43 0.37 0.33 0.31 0.30 0.31 0.37 0.33 0.35 0.32 0.28 0.25 0.27 0.35 0.48 0.68 0.88 1.10 1.33 1.54 1.57 1.47 1.52 1.56 1.44 1.37 1.33 1.41 1.54 1.68 1.82 1.86 2.01 2.11 2.24 2.76 3.15 2.83
0.59 0.50 0.48 0.55 0.72 0.69 0.52 0.62 0.53 0.44 0.54 0.49 0.41 0.37 0.33 0.30 0.31 0.33 0.31 0.34 0.33 0.31 0.31 0.36 0.55 0.79 1.03 1.25 1.50 1.76 1.74 1.63 1.54 1.55 1.53 1.47 1.47 1.44 1.44 1.57 1.65 1.67 1.74 1.86 2.19 2.46 2.73 2.95 2.94
0.41 0.47 0.52 0.59 0.72 0.72 0.45 0.50 0.55 0.42 0.46 0.49 0.46 0.39 0.32 0.28 0.33 0.40 0.46 0.54 0.56 0.59 0.73 0.91 1.17 1.35 1.45 1.57 1.72 1.82 1.77 1.77 1.72 1.54 1.46 1.45 1.50 1.56 1.59 1.64 1.64 1.62 1.67 1.78 2.01 2.31 2.53 2.83 3.01
0.39 0.64 0.90 0.94 0.94 0.69 0.37 0.53 0.59 0.42 0.36 0.36 0.38 0.32 0.27 0.31 0.41 0.54 0.70 0.83 0.94 1.06 1.21 1.35 1.52 1.65 1.60 1.58 1.63 1.68 1.67 1.64 1.61 1.55 1.47 1.41 1.43 1.47 1.50 1.58 1.70 1.77 1.81 1.93 2.11 2.26 2.19 2.38 2.76
0.39 0.57 0.95 1.07 0.90 0.64 0.48 0.71 0.67 0.49 0.36 0.28 0.22 0.21 0.31 0.46 0.59 0.70 0.78 0.89 1.06 1.22 1.28 1.28 1.38 1.49 1.46 1.43 1.41 1.39 1.46 1.47 1.41 1.32 1.30 1.34 1.43 1.42 1.36 1.39 1.50 1.62 1.79 1.85 1.90 1.93 1.91 2.01 2.26
0.34 0.38 0.43 0.67 0.56 0.55 0.62 0.79 0.69 0.45 0.38 0.31 0.26 0.30 0.45 0.66 0.86 1.01 1.12 1.23 1.27 1.32 1.39 1.31 1.29 1.35 1.35 1.30 1.21 1.20 1.26 1.32 1.32 1.24 1.25 1.24 1.24 1.16 1.08 1.08 1.15 1.23 1.29 1.38 1.53 1.62 1.75 1.79 1.91
0.28 0.37 0.50 0.77 0.88 0.88 0.85 0.89 0.77 0.58 0.49 0.50 0.57 0.67 0.73 0.84 1.11 1.39 1.64 1.80 1.63 1.37 1.29 1.27 1.20 1.21 1.29 1.28 1.20 1.14 1.21 1.22 1.20 1.22 1.19 1.19 1.18 1.09 1.00 0.96 0.93 0.92 0.88 0.92 1.12 1.32 1.45 1.54 1.69
0.29 0.43 0.54 0.72 0.83 1.08 1.29 1.28 0.99 0.98 0.96 1.00 1.09 1.14 1.14 1.24 1.24 1.40 1.59 1.77 1.68 1.37 1.15 1.18 1.23 1.21 1.21 1.21 1.19 1.16 1.13 1.03 1.02 1.06 1.06 1.04 1.04 1.08 1.06 0.96 0.89 0.98 0.98 0.94 1.01 1.07 1.15 1.21 1.34
0.40 0.52 0.68 0.97 0.91 0.90 1.18 1.30 1.05 1.03 1.05 1.11 1.28 1.34 1.33 1.24 1.15 1.14 1.19 1.26 1.29 1.15 0.97 0.94 1.10 1.17 1.14 1.12 1.13 1.09 0.99 0.93 0.90 0.89 0.85 0.74 0.71 0.74 0.83 0.92 0.86 0.84 0.88 0.91 0.97 0.99 1.03 1.07 1.16